SCP
0 0 0 0 0 0 0 0 0 0 0 0 0 0 0 0 0 0 0 0 0 0 0 0 0 0 0 0 0 0 0 0 0 0 0 0 0 0 0 0 0 0 0
0 0 0 0 0 0 0 0 0 0 0 0 0 0 0 0 0 0 0 0 0 0 0 0 0 0 0 0 0 0 0 0 0 0 0 0 0 0 0 0 0 0 0
0 0 0 0 0 0 0 0 0 0 0 0 0 0 0 0 0 0 0 0 0 0 0 0 0 0 0 0 0 0 0 0 0 0 0 0 0 0 0 0 0 0 0
0 0 0 0 0 0 0 0 0 0 0 0 0 0 0 0 0 0 0 0 0 0 0 0 0 0 0 0 0 0 0 0 0 0 0 0 0 0 0 0 0 0 0
0 0 0 0 0 0 0 0 0 0 0 0 0 0 0 0 0 0 0 0 0 0 0 0 0 0 0 0 0 0 0 0 0 0 0 0 0 0 0 0 0 0 0
0 0 0 0 0 0 0 0 0 0 0 0 0 0 0 0 0 0 0 0 0 0 0 0 0 0 0 0 0 0 0 0 0 0 0 0 0 0 0 0 0 0 0
0 0 0 0 0 0 0 0 0 0 0 0 0 0 0 0 0 0 0 0 0 0 0 0 0 0 0 0 0 0 0 0 0 0 0 0 0 0 0 0 0 0 0
0 0 0 0 0 0 0 0 0 0 0 0 0 0 0 0 0 0 0 0 0 0 0 0 0 0 0 0 0 0 0 0 0 0 0 0 0 0 0 0 0 0 0
0 0 0 0 0 0 0 0 0 0 0 0 0 0 0 0 0 0 0 0 0 0 0 0 0 0 0 0 0 0 0 0 0 0 0 0 0 0 0 0 0 0 0
0 0 0 0 0 0 0 0 0 0 0 0 0 0 0 0 0 0 0 0 0 0 0 0 0 0 0 0 0 0 0 0 0 0 0 0 0 0 0 0 0 0 0
0 0 0 0 0 0 0 0 0 0 0 0 0 0 0 0 0 0 0 0 0 0 0 0 0 0 0 0 0 0 0 0 0 0 0 0 0 0 0 0 0 0 0
0 0 0 0 0 0 0 0 0 0 0 0 0 0 0 0 0 0 0 0 0 0 0 0 0 0 0 0 0 0 0 0 0 0 0 0 0 0 0 0 -0 -0 0
0 0 0 0 0 0 0 0 0 0 0 0 0 0 0 0 0 0 0 0 0 0 0 0 0 0 0 0 0 0 0 0 0 0 0 0 0 0 0 0 -0 0 0
0 0 0 0 0 0 0 0 0 0 0 0 0 0 0 0 0 0 0 0 0 0 0 0 0 0 0 0 0 0 0 0 0 0 0 0 0 0 0 0 0 0 0
0 0 0 0 0 0 0 0 0 0 0 0 0 0 0 0 0 0 0 0 0 0 0 0 0 0 0 0 0 0 0 0 0 0 0 0 0 0 0 0 0 0 0
0 0 0 0 0 0 0 0 0 0 0 0 0 0 0 0 0 0 0 0 0 0 0 0 0 0 0 0 0 0 0 0 0 0 0 0 0 0 0 0 0 0 0
0 0 0 0 0 0 0 0 0 0 0 0 0 0 0 0 0 0 0 0 0 0 0 0 0 0 0 0 0 0 0 0 0 0 0 0 0 0 0 0 0 0 0
0 0 0 0 0 0 0 0 0 0 0 0 0 0 0 0 0 0 0 0 0 0 0 0 0 0 0 0 0 0 0 0 0 0 0 0 0 0 0 0 0 0 0
0 0 0 0 0 0 0 0 0 0 0 0 0 0 0 0 0 0 0 0 0 0 0 0 0 0 0 0 0 0 0 0 0 0 0 0 0 0 0 0 0 0 0
0 0 0 0 0 0 0 0 0 0 0 0 0 0 0 0 0 0 0 0 0 0 0 0 0 0 0 0 0 0 0 0 0 0 0 0 0 0 0 0 0 0 0
0 0 0 0 0 0 0 0 0 0 0 0 0 0 0 0 0 0 0 0 0 0 0 0 0 0 0 0 0 0 0 0 0 0 0 0 0 0 0 0 0 0 0
0 0 0 0 0 0 0 0 0 0 0 0 0 0 0 0 0 0 0 0 0 0 0 0 0 0 0 0 0 0 0 0 0 0 0 0 0 0 0 0 0 0 0
0 0 0 0 0 0 0 0 0 0 0 0 0 0 0 0 0 0 0 0 0 0 0 0 0 0 0 0 0 0 0 0 0 0 0 0 0 0 0 0 0 0 0
-0 -0 0 0 0 0 -0 0 0 0 0 0 -0 -0 0 0 0 0 0 0 0 0 0 0 0 0 0 0 0 0 0 0 0 0 0 0 0 0 0 0 0 0 0
-0 -0 0 0 0 0 -0 -0 -0 0 -0 -0 -0 -0 0 0 0 0 0 0 0 0 0 0 0 0 0 0 0 0 0 0 0 0 0 0 0 0 0 0 0 0 0
0 0 -0 0 0 0 -0 -0 -0 0 -0 0 0 0 -0 0 0 0 0 0 0 0 0 0 0 0 0 0 0 0 0 0 0 0 0 0 0 0 0 0 0 0 0
Wind_Speed_500mb
26 26 24 16 15 14 18 17 17 21 20 16 16 14 10 10 11 13 10 18 15 15 18 21 21 14 11 9 9 9 10 11 12 12 11 9 12 15 19 23 20 22 20
23 35 27 20 22 20 17 16 16 17 16 16 17 17 17 20 20 20 14 22 23 22 21 21 19 18 16 16 15 15 16 15 15 15 15 14 14 15 19 24 22 21 23
27 32 35 27 27 27 27 24 23 18 16 20 19 19 23 24 25 23 28 28 27 29 29 28 24 23 25 24 24 30 23 21 21 19 18 17 17 18 19 21 24 24 20
28 29 29 30 30 32 30 29 27 26 24 20 17 17 24 25 28 32 34 35 35 34 34 35 35 33 29 29 32 31 34 30 31 28 25 23 23 21 21 20 23 24 25
30 29 32 30 31 34 33 33 33 30 29 29 28 30 32 35 37 37 41 43 43 44 44 43 43 39 40 37 37 38 39 38 37 43 35 34 31 31 27 22 27 24 31
35 32 30 30 35 36 37 38 36 33 34 30 32 32 35 44 43 47 45 44 46 46 46 45 49 47 45 47 46 46 43 44 45 48 50 49 44 37 34 32 27 27 36
41 37 35 33 34 36 38 40 37 36 36 38 36 38 42 42 39 38 42 42 44 47 44 47 50 49 49 49 48 51 52 49 48 52 57 55 53 48 43 40 36 31 37
52 50 47 45 38 38 40 42 41 39 38 38 35 32 23 27 30 18 22 28 29 27 30 33 41 44 47 48 48 50 54 55 56 55 56 60 59 59 53 45 44 42 35
54 52 47 53 45 41 45 45 46 46 44 42 37 31 13 8 20 26 22 22 30 34 28 30 34 39 36 37 40 44 47 49 54 58 62 62 61 62 63 59 49 48 44
40 50 56 61 53 56 52 46 43 46 46 49 46 45 48 42 19 19 23 33 41 46 41 37 42 45 46 47 49 51 51 49 54 57 61 64 68 68 65 67 66 59 52
33 45 48 56 65 61 61 58 59 54 52 50 58 55 49 51 55 60 52 50 48 56 58 56 58 55 54 56 58 55 53 52 54 54 57 67 71 73 76 70 72 70 63
44 49 50 55 61 66 74 60 64 65 71 68 61 63 67 59 53 53 55 67 70 73 65 66 70 64 60 60 62 61 58 56 53 54 58 62 68 74 78 80 78 76 72
49 45 50 51 53 55 57 60 67 71 68 70 63 68 71 73 66 70 65 76 81 79 74 73 78 74 67 70 64 57 56 52 52 56 61 64 67 70 74 80 83 86 86
52 51 46 50 48 62 59 55 65 71 58 57 63 73 62 76 63 61 65 71 69 72 75 76 71 67 64 68 60 63 62 63 63 59 59 64 63 68 74 77 79 85 90
44 47 45 43 33 30 40 52 50 51 65 73 52 52 67 55 56 47 45 50 61 57 59 70 61 62 68 65 72 73 70 66 69 69 67 67 70 73 75 75 72 73 84
47 43 40 37 31 28 23 23 26 35 36 35 50 43 45 33 40 49 43 46 56 61 62 69 67 66 66 67 63 70 73 73 70 66 65 64 61 64 63 69 70 71 76
37 32 30 31 28 28 27 23 26 25 25 29 39 38 41 43 45 46 46 47 51 53 58 64 62 65 66 67 66 67 71 74 77 79 76 74 70 69 66 64 67 69 68
40 29 31 31 35 30 30 32 30 28 30 31 33 34 40 34 41 39 39 36 38 38 47 52 55 54 54 57 61 65 65 68 71 72 73 70 67 63 65 67 68 68 66
36 29 30 33 32 21 30 27 29 30 28 28 31 26 26 28 27 30 34 36 36 38 42 47 52 49 48 50 52 52 55 57 58 63 67 71 72 71 69 66 65 66 70
32 27 24 20 22 22 23 29 27 19 17 16 15 14 15 19 23 28 28 27 26 26 29 33 39 43 49 50 54 63 63 61 66 61 58 56 57 61 65 64 58 58 62
20 22 20 20 18 15 19 17 14 10 9 9 9 10 11 13 12 13 14 15 20 25 30 34 40 43 49 53 57 59 66 71 67 62 66 67 68 66 63 62 65 63 55
13 14 15 13 14 14 13 9 6 6 6 6 6 7 10 8 11 13 17 22 24 28 31 34 40 45 49 55 60 64 69 77 89 71 80 74 60 67 70 63 57 59 54
14 11 12 11 13 22 20 18 16 14 14 14 13 13 12 12 13 16 19 22 24 28 33 38 42 46 52 56 64 66 65 66 69 74 70 79 66 62 64 65 56 50 45
14 18 15 20 23 28 23 21 20 19 19 18 16 16 19 18 17 20 21 21 27 30 33 36 41 43 46 50 54 57 61 63 64 62 53 64 73 74 67 61 55 50 44
26 33 33 35 30 28 25 23 23 23 22 24 23 22 22 21 21 22 24 25 27 29 33 35 34 35 39 44 49 52 57 64 72 65 45 64 72 77 70 53 51 58 38
30 33 31 31 30 32 29 27 26 25 24 25 24 26 25 24 26 29 31 29 28 30 29 28 30 34 38 42 48 52 55 58 62 50 54 68 62 65 52 46 61 52 27
Wind_Direction_500mb
205 196 186 182 186 185 186 189 205 209 217 221 235 233 244 235 255 250 255 292 296 312 323 323 311 288 267 276 290 298 312 324 336 343 338 325 317 309 320 332 344 345 356
208 206 203 201 208 199 198 200 206 215 214 218 237 242 238 243 243 242 237 278 283 285 294 300 292 284 269 277 281 280 286 293 303 312 319 316 310 304 304 311 324 333 340
213 221 219 211 221 216 219 212 215 208 218 231 231 247 252 253 256 258 257 255 275 281 277 280 279 274 267 269 274 289 288 278 282 287 291 296 302 299 300 287 306 314 326
234 225 218 214 224 225 229 231 236 237 233 241 247 249 261 257 258 256 256 258 262 263 275 279 275 273 269 267 275 275 281 284 273 277 282 281 283 287 292 284 285 298 313
230 227 232 227 227 230 231 233 237 239 244 245 248 252 265 269 269 268 259 260 266 268 273 276 278 274 273 269 261 263 271 278 275 284 286 277 275 271 276 281 274 273 291
237 228 227 232 229 237 236 239 243 246 246 252 256 267 269 274 274 268 269 269 269 271 273 272 272 276 273 271 270 267 258 262 275 278 282 289 290 276 267 275 273 263 268
243 245 245 237 234 237 240 244 244 249 249 250 261 270 277 288 286 276 274 271 268 271 275 277 278 277 276 276 273 271 270 263 259 267 277 283 284 282 282 266 269 257 256
235 253 241 244 245 246 241 242 250 251 253 257 254 263 288 301 290 294 283 275 278 278 285 284 282 284 283 280 281 277 274 273 269 262 260 269 276 278 277 268 259 259 252
247 247 237 235 238 244 249 246 248 252 259 262 257 252 260 254 283 297 290 276 280 286 287 303 296 297 299 294 295 290 284 283 278 276 272 266 260 266 271 271 259 253 252
251 253 248 241 241 247 248 252 255 254 255 257 265 256 257 261 276 297 290 291 290 289 291 296 295 296 298 298 298 297 297 296 289 284 281 276 270 263 258 264 266 257 251
252 252 239 238 238 240 247 252 253 255 258 259 264 269 266 264 263 262 278 291 295 295 297 299 301 298 301 302 299 298 297 294 290 287 282 279 276 271 264 255 258 261 248
244 250 243 242 245 248 247 251 255 260 260 264 265 266 267 267 269 272 273 285 291 293 293 297 299 298 301 302 301 300 302 298 293 289 284 281 278 274 269 264 255 251 249
250 246 245 245 247 256 252 254 259 261 266 265 272 272 272 273 276 275 266 277 283 294 291 293 296 295 301 303 305 304 303 302 297 298 289 284 277 276 272 267 261 255 247
251 255 251 255 266 249 248 253 266 253 261 272 275 282 285 276 270 276 279 283 288 296 304 304 304 303 308 304 303 306 301 294 301 298 299 296 291 281 275 270 264 257 251
254 254 257 258 258 261 259 256 259 263 259 260 273 270 275 287 280 291 286 285 282 287 292 307 299 308 304 309 301 307 308 304 300 299 297 294 290 294 287 279 277 266 251
251 262 259 252 245 242 246 253 262 254 277 270 273 285 286 289 285 295 297 294 297 298 285 298 304 306 304 308 308 303 302 301 303 303 300 294 291 291 289 288 284 285 268
249 260 253 239 230 224 233 241 267 279 275 282 280 282 277 273 276 277 285 289 291 292 286 294 296 299 303 305 304 303 303 301 301 301 299 296 293 287 282 279 282 280 276
232 241 244 239 238 234 237 248 261 264 266 269 276 266 263 270 278 282 287 289 294 297 296 300 302 306 307 304 303 301 297 299 298 299 298 298 297 296 293 286 279 274 274
222 239 251 252 248 254 242 256 258 272 264 261 261 262 264 276 277 287 291 296 298 301 302 306 312 320 324 320 321 317 318 313 307 303 298 294 293 292 290 287 285 281 274
199 215 216 231 247 249 256 251 264 260 259 259 256 269 280 281 293 296 301 307 313 317 318 321 327 335 335 335 332 331 328 327 325 326 323 316 307 299 294 289 286 282 275
200 194 199 223 225 217 234 230 230 230 235 265 279 278 283 295 312 329 341 349 345 342 344 342 341 340 341 339 340 339 333 331 329 330 326 324 317 313 308 297 292 290 283
133 152 165 166 173 171 170 171 206 223 215 184 134 100 67 40 22 359 5 8 360 354 350 350 352 349 348 346 344 343 342 340 336 339 330 325 319 317 319 315 307 296 289
106 118 119 104 116 118 121 125 112 110 106 96 90 90 79 64 50 35 23 13 6 6 4 2 0 355 350 348 346 344 343 339 335 337 336 331 337 329 327 327 319 305 298
93 122 121 124 113 102 109 103 103 109 112 111 104 94 81 64 57 45 33 22 20 13 9 5 3 358 352 350 350 348 344 341 342 349 346 335 337 334 335 333 328 312 294
122 125 127 125 133 120 115 115 112 109 106 97 88 79 74 67 58 54 40 29 25 21 14 8 4 1 360 357 353 351 353 353 352 360 354 338 341 335 342 348 344 340 310
113 108 112 112 123 116 107 103 102 99 93 87 82 72 66 62 55 47 40 29 25 24 20 14 12 12 11 7 4 2 359 359 359 359 344 342 346 344 342 344 347 348 336
Wind_Speed_850mb
26 26 24 16 15 14 18 17 17 21 20 16 16 14 10 10 11 13 10 18 15 15 18 21 21 14 11 9 9 9 10 11 12 12 11 9 12 15 19 23 20 22 20
23 35 27 20 22 20 17 16 16 17 16 16 17 17 17 20 20 20 14 22 23 22 21 21 19 18 16 16 15 15 16 15 15 15 15 14 14 15 19 24 22 21 23
27 32 35 27 27 27 27 24 23 18 16 20 19 19 23 24 25 23 28 28 27 29 29 28 24 23 25 24 24 30 23 21 21 19 18 17 17 18 19 21 24 24 20
28 29 29 30 30 32 30 29 27 26 24 20 17 17 24 25 28 32 34 35 35 34 34 35 35 33 29 29 32 31 34 30 31 28 25 23 23 21 21 20 23 24 25
30 29 32 30 31 34 33 33 33 30 29 29 28 30 32 35 37 37 41 43 43 44 44 43 43 39 40 37 37 38 39 38 37 43 35 34 31 31 27 22 27 24 31
35 32 30 30 35 36 37 38 36 33 34 30 32 32 35 44 43 47 45 44 46 46 46 45 49 47 45 47 46 46 43 44 45 48 50 49 44 37 34 32 27 27 36
41 37 35 33 34 36 38 40 37 36 36 38 36 38 42 42 39 38 42 42 44 47 44 47 50 49 49 49 48 51 52 49 48 52 57 55 53 48 43 40 36 31 37
52 50 47 45 38 38 40 42 41 39 38 38 35 32 23 27 30 18 22 28 29 27 30 33 41 44 47 48 48 50 54 55 56 55 56 60 59 59 53 45 44 42 35
54 52 47 53 45 41 45 45 46 46 44 42 37 31 13 8 20 26 22 22 30 34 28 30 34 39 36 37 40 44 47 49 54 58 62 62 61 62 63 59 49 48 44
40 50 56 61 53 56 52 46 43 46 46 49 46 45 48 42 19 19 23 33 41 46 41 37 42 45 46 47 49 51 51 49 54 57 61 64 68 68 65 67 66 59 52
33 45 48 56 65 61 61 58 59 54 52 50 58 55 49 51 55 60 52 50 48 56 58 56 58 55 54 56 58 55 53 52 54 54 57 67 71 73 76 70 72 70 63
44 49 50 55 61 66 74 60 64 65 71 68 61 63 67 59 53 53 55 67 70 73 65 66 70 64 60 60 62 61 58 56 53 54 58 62 68 74 78 80 78 76 72
49 45 50 51 53 55 57 60 67 71 68 70 63 68 71 73 66 70 65 76 81 79 74 73 78 74 67 70 64 57 56 52 52 56 61 64 67 70 74 80 83 86 86
52 51 46 50 48 62 59 55 65 71 58 57 63 73 62 76 63 61 65 71 69 72 75 76 71 67 64 68 60 63 62 63 63 59 59 64 63 68 74 77 79 85 90
44 47 45 43 33 30 40 52 50 51 65 73 52 52 67 55 56 47 45 50 61 57 59 70 61 62 68 65 72 73 70 66 69 69 67 67 70 73 75 75 72 73 84
47 43 40 37 31 28 23 23 26 35 36 35 50 43 45 33 40 49 43 46 56 61 62 69 67 66 66 67 63 70 73 73 70 66 65 64 61 64 63 69 70 71 76
37 32 30 31 28 28 27 23 26 25 25 29 39 38 41 43 45 46 46 47 51 53 58 64 62 65 66 67 66 67 71 74 77 79 76 74 70 69 66 64 67 69 68
40 29 31 31 35 30 30 32 30 28 30 31 33 34 40 34 41 39 39 36 38 38 47 52 55 54 54 57 61 65 65 68 71 72 73 70 67 63 65 67 68 68 66
36 29 30 33 32 21 30 27 29 30 28 28 31 26 26 28 27 30 34 36 36 38 42 47 52 49 48 50 52 52 55 57 58 63 67 71 72 71 69 66 65 66 70
32 27 24 20 22 22 23 29 27 19 17 16 15 14 15 19 23 28 28 27 26 26 29 33 39 43 49 50 54 63 63 61 66 61 58 56 57 61 65 64 58 58 62
20 22 20 20 18 15 19 17 14 10 9 9 9 10 11 13 12 13 14 15 20 25 30 34 40 43 49 53 57 59 66 71 67 62 66 67 68 66 63 62 65 63 55
13 14 15 13 14 14 13 9 6 6 6 6 6 7 10 8 11 13 17 22 24 28 31 34 40 45 49 55 60 64 69 77 89 71 80 74 60 67 70 63 57 59 54
14 11 12 11 13 22 20 18 16 14 14 14 13 13 12 12 13 16 19 22 24 28 33 38 42 46 52 56 64 66 65 66 69 74 70 79 66 62 64 65 56 50 45
14 18 15 20 23 28 23 21 20 19 19 18 16 16 19 18 17 20 21 21 27 30 33 36 41 43 46 50 54 57 61 63 64 62 53 64 73 74 67 61 55 50 44
26 33 33 35 30 28 25 23 23 23 22 24 23 22 22 21 21 22 24 25 27 29 33 35 34 35 39 44 49 52 57 64 72 65 45 64 72 77 70 53 51 58 38
30 33 31 31 30 32 29 27 26 25 24 25 24 26 25 24 26 29 31 29 28 30 29 28 30 34 38 42 48 52 55 58 62 50 54 68 62 65 52 46 61 52 27
Wind_Direction_850mb
205 196 186 182 186 185 186 189 205 209 217 221 235 233 244 235 255 250 255 292 296 312 323 323 311 288 267 276 290 298 312 324 336 343 338 325 317 309 320 332 344 345 356
208 206 203 201 208 199 198 200 206 215 214 218 237 242 238 243 243 242 237 278 283 285 294 300 292 284 269 277 281 280 286 293 303 312 319 316 310 304 304 311 324 333 340
213 221 219 211 221 216 219 212 215 208 218 231 231 247 252 253 256 258 257 255 275 281 277 280 279 274 267 269 274 289 288 278 282 287 291 296 302 299 300 287 306 314 326
234 225 218 214 224 225 229 231 236 237 233 241 247 249 261 257 258 256 256 258 262 263 275 279 275 273 269 267 275 275 281 284 273 277 282 281 283 287 292 284 285 298 313
230 227 232 227 227 230 231 233 237 239 244 245 248 252 265 269 269 268 259 260 266 268 273 276 278 274 273 269 261 263 271 278 275 284 286 277 275 271 276 281 274 273 291
237 228 227 232 229 237 236 239 243 246 246 252 256 267 269 274 274 268 269 269 269 271 273 272 272 276 273 271 270 267 258 262 275 278 282 289 290 276 267 275 273 263 268
243 245 245 237 234 237 240 244 244 249 249 250 261 270 277 288 286 276 274 271 268 271 275 277 278 277 276 276 273 271 270 263 259 267 277 283 284 282 282 266 269 257 256
235 253 241 244 245 246 241 242 250 251 253 257 254 263 288 301 290 294 283 275 278 278 285 284 282 284 283 280 281 277 274 273 269 262 260 269 276 278 277 268 259 259 252
247 247 237 235 238 244 249 246 248 252 259 262 257 252 260 254 283 297 290 276 280 286 287 303 296 297 299 294 295 290 284 283 278 276 272 266 260 266 271 271 259 253 252
251 253 248 241 241 247 248 252 255 254 255 257 265 256 257 261 276 297 290 291 290 289 291 296 295 296 298 298 298 297 297 296 289 284 281 276 270 263 258 264 266 257 251
252 252 239 238 238 240 247 252 253 255 258 259 264 269 266 264 263 262 278 291 295 295 297 299 301 298 301 302 299 298 297 294 290 287 282 279 276 271 264 255 258 261 248
244 250 243 242 245 248 247 251 255 260 260 264 265 266 267 267 269 272 273 285 291 293 293 297 299 298 301 302 301 300 302 298 293 289 284 281 278 274 269 264 255 251 249
250 246 245 245 247 256 252 254 259 261 266 265 272 272 272 273 276 275 266 277 283 294 291 293 296 295 301 303 305 304 303 302 297 298 289 284 277 276 272 267 261 255 247
251 255 251 255 266 249 248 253 266 253 261 272 275 282 285 276 270 276 279 283 288 296 304 304 304 303 308 304 303 306 301 294 301 298 299 296 291 281 275 270 264 257 251
254 254 257 258 258 261 259 256 259 263 259 260 273 270 275 287 280 291 286 285 282 287 292 307 299 308 304 309 301 307 308 304 300 299 297 294 290 294 287 279 277 266 251
251 262 259 252 245 242 246 253 262 254 277 270 273 285 286 289 285 295 297 294 297 298 285 298 304 306 304 308 308 303 302 301 303 303 300 294 291 291 289 288 284 285 268
249 260 253 239 230 224 233 241 267 279 275 282 280 282 277 273 276 277 285 289 291 292 286 294 296 299 303 305 304 303 303 301 301 301 299 296 293 287 282 279 282 280 276
232 241 244 239 238 234 237 248 261 264 266 269 276 266 263 270 278 282 287 289 294 297 296 300 302 306 307 304 303 301 297 299 298 299 298 298 297 296 293 286 279 274 274
222 239 251 252 248 254 242 256 258 272 264 261 261 262 264 276 277 287 291 296 298 301 302 306 312 320 324 320 321 317 318 313 307 303 298 294 293 292 290 287 285 281 274
199 215 216 231 247 249 256 251 264 260 259 259 256 269 280 281 293 296 301 307 313 317 318 321 327 335 335 335 332 331 328 327 325 326 323 316 307 299 294 289 286 282 275
200 194 199 223 225 217 234 230 230 230 235 265 279 278 283 295 312 329 341 349 345 342 344 342 341 340 341 339 340 339 333 331 329 330 326 324 317 313 308 297 292 290 283
133 152 165 166 173 171 170 171 206 223 215 184 134 100 67 40 22 359 5 8 360 354 350 350 352 349 348 346 344 343 342 340 336 339 330 325 319 317 319 315 307 296 289
106 118 119 104 116 118 121 125 112 110 106 96 90 90 79 64 50 35 23 13 6 6 4 2 0 355 350 348 346 344 343 339 335 337 336 331 337 329 327 327 319 305 298
93 122 121 124 113 102 109 103 103 109 112 111 104 94 81 64 57 45 33 22 20 13 9 5 3 358 352 350 350 348 344 341 342 349 346 335 337 334 335 333 328 312 294
122 125 127 125 133 120 115 115 112 109 106 97 88 79 74 67 58 54 40 29 25 21 14 8 4 1 360 357 353 351 353 353 352 360 354 338 341 335 342 348 344 340 310
113 108 112 112 123 116 107 103 102 99 93 87 82 72 66 62 55 47 40 29 25 24 20 14 12 12 11 7 4 2 359 359 359 359 344 342 346 344 342 344 347 348 336